CW1575 Weather Reports


Display with metric or nautical units.
time (UTC)temp
F
wind
direction
speed
MPH
gust
MPH
rain 1hr
in
rain 24hr
in
rain mn
in
humidity
%
barometer
mb
20170921084504 49 323 2.0 3.0 0.00 0.00 0.00 65 1009.8
20170921084004 48 320 1.0 2.0 0.00 0.00 0.00 65 1009.9
20170921083504 48 320 0.0 1.0 0.00 0.00 0.00 65 1010.1
20170921083004 48 320 1.0 3.0 0.00 0.00 0.00 66 1010.1
20170921082504 48 320 0.0 1.0 0.00 0.00 0.00 67 1010.1
20170921082004 48 320 1.0 3.0 0.00 0.00 0.00 67 1010.2
20170921081504 48 320 0.0 0.0 0.00 0.00 0.00 67 1010.2
20170921081003 48 320 0.0 0.0 0.00 0.00 0.00 68 1010.3
20170921080503 49 320 0.0 0.0 0.00 0.00 0.00 68 1010.4
20170921080004 49 320 0.0 0.0 0.00 0.00 0.00 68 1010.4
20170921075503 49 320 0.0 0.0 0.00 0.00 0.00 68 1010.4
20170921075004 49 320 0.0 0.0 0.00 0.00 0.00 68 1010.4
20170921074504 49 320 0.0 0.0 0.00 0.00 0.00 68 1010.4
20170921074004 49 320 0.0 0.0 0.00 0.00 0.00 67 1010.4
20170921073503 49 320 0.0 0.0 0.00 0.00 0.00 67 1010.4
20170921073004 49 320 0.0 0.0 0.00 0.00 0.00 67 1010.4
20170921072503 49 320 0.0 0.0 0.00 0.00 0.00 66 1010.3
20170921072004 50 320 0.0 0.0 0.00 0.00 0.00 66 1010.3
20170921071503 50 320 0.0 0.0 0.00 0.00 0.00 66 1010.4
20170921071005 50 320 0.0 0.0 0.00 0.00 0.00 65 1010.3
20170921070504 50 320 0.0 0.0 0.00 0.00 0.00 65 1010.3
20170921070004 50 320 0.0 0.0 0.00 0.00 0.00 64 1010.3
20170921065504 51 320 0.0 0.0 0.00 0.00 0.00 64 1010.3
20170921065004 51 320 0.0 0.0 0.00 0.00 0.00 64 1010.4
20170921064504 51 320 0.0 0.0 0.00 0.00 0.00 64 1010.4
20170921064004 51 320 0.0 0.0 0.00 0.00 0.00 64 1010.4
20170921063503 51 320 0.0 0.0 0.00 0.00 0.00 64 1010.4
20170921063005 51 320 0.0 0.0 0.00 0.00 0.00 64 1010.4
20170921062504 51 320 0.0 0.0 0.00 0.00 0.00 64 1010.5
20170921062004 52 320 0.0 0.0 0.00 0.00 0.00 64 1010.6
20170921061504 52 320 0.0 0.0 0.00 0.00 0.00 64 1010.6
20170921061004 52 320 0.0 0.0 0.00 0.00 0.00 64 1010.6
20170921060504 52 320 0.0 0.0 0.00 0.00 0.00 63 1010.7
20170921060004 53 320 0.0 0.0 0.00 0.00 0.00 63 1010.7
20170921055504 53 320 0.0 1.0 0.00 0.00 0.00 62 1010.8
20170921055004 53 320 0.0 0.0 0.00 0.00 0.00 61 1010.9
20170921054504 53 320 0.0 0.0 0.00 0.00 0.00 60 1010.8
20170921054004 53 320 0.0 0.0 0.00 0.00 0.00 59 1010.9
20170921053504 54 320 0.0 2.0 0.00 0.00 0.00 59 1010.9
20170921053004 54 320 1.0 2.0 0.00 0.00 0.00 58 1010.9
20170921052503 54 320 0.0 0.0 0.00 0.00 0.00 57 1010.9
20170921052004 54 320 0.0 1.0 0.00 0.00 0.00 57 1010.9
20170921051504 54 320 0.0 0.0 0.00 0.00 0.00 56 1011.0
20170921051003 54 320 0.0 0.0 0.00 0.00 0.00 56 1010.9
20170921050504 55 320 0.0 0.0 0.00 0.00 0.00 56 1011.0
20170921050004 55 320 0.0 0.0 0.00 0.00 0.00 56 1011.0
20170921045504 55 320 0.0 0.0 0.00 0.00 0.00 56 1010.9
20170921045004 55 320 0.0 2.0 0.00 0.00 0.00 56 1011.0
20170921044504 55 320 0.0 1.0 0.00 0.00 0.00 56 1011.0
20170921044004 55 320 0.0 1.0 0.00 0.00 0.00 56 1011.1
20170921043504 56 320 0.0 0.0 0.00 0.00 0.00 56 1011.1
20170921043004 56 320 0.0 1.0 0.00 0.00 0.00 56 1011.0
20170921042503 56 320 0.0 1.0 0.00 0.00 0.00 56 1011.1
20170921042005 56 320 1.0 2.0 0.00 0.00 0.00 57 1011.1
20170921041503 56 320 0.0 1.0 0.00 0.00 0.00 57 1011.1
20170921041004 56 320 1.0 2.0 0.00 0.00 0.00 58 1011.2
20170921040504 56 320 0.0 2.0 0.00 0.00 0.00 58 1011.3
20170921040004 56 321 0.0 3.0 0.00 0.00 0.00 59 1011.4
20170921035504 56 229 1.0 5.0 0.00 0.00 0.00 58 1011.4
20170921035004 56 201 2.0 5.0 0.00 0.00 0.00 57 1011.4
20170921034503 57 181 2.0 3.0 0.00 0.00 0.00 58 1011.4
20170921034003 57 313 1.0 3.0 0.00 0.00 0.00 57 1011.4
20170921033503 57 313 0.0 2.0 0.00 0.00 0.00 56 1011.3
20170921033005 57 313 0.0 2.0 0.00 0.00 0.00 57 1011.3
20170921032504 57 313 0.0 1.0 0.00 0.00 0.00 57 1011.4
20170921032004 58 313 0.0 0.0 0.00 0.00 0.00 57 1011.4
20170921031504 58 313 0.0 0.0 0.00 0.00 0.00 56 1011.3
20170921031004 58 313 0.0 0.0 0.00 0.00 0.00 56 1011.2
20170921030504 58 313 0.0 0.0 0.00 0.00 0.00 56 1011.3
20170921030004 59 313 0.0 0.0 0.00 0.00 0.00 56 1011.1
20170921025504 59 313 0.0 0.0 0.00 0.00 0.00 56 1011.3
20170921025004 59 313 0.0 0.0 0.00 0.00 0.00 55 1011.3
20170921024504 60 313 0.0 0.0 0.00 0.00 0.00 55 1011.3
20170921024004 60 313 0.0 1.0 0.00 0.00 0.00 54 1011.1
20170921023503 60 313 0.0 0.0 0.00 0.00 0.00 54 1011.3
20170921023004 61 313 0.0 0.0 0.00 0.00 0.00 53 1011.1
20170921022503 61 313 0.0 0.0 0.00 0.00 0.00 52 1011.1
20170921022005 61 313 0.0 0.0 0.00 0.00 0.00 51 1011.2
20170921021503 62 313 0.0 1.0 0.00 0.00 0.00 49 1011.1
20170921021004 62 313 0.0 0.0 0.00 0.00 0.00 48 1011.1
20170921020504 62 313 0.0 0.0 0.00 0.00 0.00 47 1011.1
20170921020004 63 313 0.0 1.0 0.00 0.00 0.00 46 1011.0
20170921015504 63 313 0.0 1.0 0.00 0.00 0.00 46 1010.8
20170921015004 64 313 0.0 0.0 0.00 0.00 0.00 45 1010.7
20170921014504 64 313 0.0 0.0 0.00 0.00 0.00 43 1010.7
20170921014004 65 313 0.0 0.0 0.00 0.00 0.00 42 1010.6
20170921013504 65 313 0.0 0.0 0.00 0.00 0.00 41 1010.6
20170921013004 66 313 0.0 0.0 0.00 0.00 0.00 41 1010.4
20170921012504 67 313 0.0 0.0 0.00 0.00 0.00 40 1010.4
20170921012004 67 313 0.0 0.0 0.00 0.00 0.00 39 1010.3
20170921011503 68 313 0.0 0.0 0.00 0.00 0.00 38 1010.3
20170921011004 68 313 0.0 0.0 0.00 0.00 0.00 38 1010.3
20170921010504 69 313 0.0 0.0 0.00 0.00 0.00 37 1010.3
20170921010004 69 313 0.0 0.0 0.00 0.00 0.00 36 1010.2
20170921005504 70 313 0.0 1.0 0.00 0.00 0.00 35 1010.1
20170921005004 70 313 0.0 1.0 0.00 0.00 0.00 34 1010.1
20170921004506 71 313 0.0 0.0 0.00 0.00 0.00 34 1010.2
20170921004004 71 313 1.0 2.0 0.00 0.00 0.00 33 1010.0
20170921003503 72 313 1.0 3.0 0.00 0.00 0.00 32 1010.0
20170921003004 72 313 1.0 3.0 0.00 0.00 0.00 32 1009.8
20170921002503 72 292 2.0 3.0 0.00 0.00 0.00 31 1009.9
20170921002004 73 319 3.0 6.0 0.00 0.00 0.00 30 1009.9
20170921001503 73 322 2.0 3.0 0.00 0.00 0.00 31 1009.9
20170921001004 74 300 1.0 3.0 0.00 0.00 0.00 31 1009.9
20170921000504 74 288 2.0 5.0 0.00 0.00 0.00 29 1010.1
20170921000004 75 302 2.0 8.0 0.00 0.00 0.00 29 1010.2
20170920235504 75 330 2.0 7.0 0.00 0.00 0.00 29 1010.1
20170920235004 76 324 3.0 5.0 0.00 0.00 0.00 29 1010.1
20170920234504 76 296 3.0 9.0 0.00 0.00 0.00 28 1010.0
20170920234004 76 290 1.0 3.0 0.00 0.00 0.00 28 1010.1
20170920233504 76 261 2.0 8.0 0.00 0.00 0.00 29 1010.0
20170920233004 76 317 2.0 6.0 0.00 0.00 0.00 29 1009.9
20170920232504 76 293 4.0 8.0 0.00 0.00 0.00 28 1010.0
20170920232004 76 315 3.0 8.0 0.00 0.00 0.00 28 1009.9
20170920231503 76 330 3.0 7.0 0.00 0.00 0.00 29 1009.9
20170920231003 76 276 2.0 8.0 0.00 0.00 0.00 28 1009.9
20170920230504 77 325 2.0 8.0 0.00 0.00 0.00 28 1009.8
20170920230004 77 315 3.0 9.0 0.00 0.00 0.00 27 1009.9
20170920225504 77 342 5.0 9.0 0.00 0.00 0.00 26 1009.7
20170920225004 78 313 1.0 5.0 0.00 0.00 0.00 25 1009.7
20170920224504 78 327 3.0 6.0 0.00 0.00 0.00 26 1009.8
20170920224004 79 29 2.0 5.0 0.00 0.00 0.00 25 1009.7
20170920223504 79 307 1.0 2.0 0.00 0.00 0.00 25 1009.7
20170920223004 79 308 1.0 3.0 0.00 0.00 0.00 24 1009.7
20170920222504 80 347 2.0 3.0 0.00 0.00 0.00 25 1009.9
20170920222004 80 16 1.0 3.0 0.00 0.00 0.00 25 1010.0
20170920221504 80 29 1.0 5.0 0.00 0.00 0.00 24 1009.9
20170920221004 80 10 3.0 5.0 0.00 0.00 0.00 25 1010.1
20170920220504 80 11 2.0 3.0 0.00 0.00 0.00 24 1010.1
20170920220003 81 24 1.0 3.0 0.00 0.00 0.00 23 1010.1
20170920215504 81 5 2.0 6.0 0.00 0.00 0.00 24 1010.0
20170920215004 81 10 2.0 3.0 0.00 0.00 0.00 25 1010.3
20170920214504 82 86 1.0 3.0 0.00 0.00 0.00 24 1010.3
20170920214004 82 6 2.0 8.0 0.00 0.00 0.00 27 1010.2
20170920213504 82 247 1.0 3.0 0.00 0.00 0.00 23 1010.2
20170920213004 82 310 2.0 3.0 0.00 0.00 0.00 24 1010.3
20170920212504 82 315 2.0 3.0 0.00 0.00 0.00 25 1010.4
20170920212004 81 330 5.0 8.0 0.00 0.00 0.00 25 1010.2
20170920211504 81 326 2.0 6.0 0.00 0.00 0.00 27 1010.4
20170920211004 81 22 1.0 3.0 0.00 0.00 0.00 27 1010.8
20170920210504 80 283 3.0 5.0 0.00 0.00 0.00 26 1010.8
20170920210004 80 337 2.0 9.0 0.00 0.00 0.00 27 1010.8
20170920205504 80 319 3.0 9.0 0.00 0.00 0.00 27 1010.9
20170920205004 80 329 3.0 7.0 0.00 0.00 0.00 27 1011.0
20170920204504 79 333 5.0 8.0 0.00 0.00 0.00 27 1011.0
20170920204004 79 8 2.0 5.0 0.00 0.00 0.00 27 1011.4
20170920203504 79 290 3.0 6.0 0.00 0.00 0.00 27 1011.4
20170920203003 79 303 4.0 8.0 0.00 0.00 0.00 26 1011.4
20170920202503 79 309 3.0 9.0 0.00 0.00 0.00 27 1011.4
20170920202004 79 309 1.0 8.0 0.00 0.00 0.00 28 1011.5
20170920201504 78 296 1.0 3.0 0.00 0.00 0.00 29 1011.6
20170920201004 78 328 4.0 7.0 0.00 0.00 0.00 29 1011.7
20170920200504 77 318 3.0 5.0 0.00 0.00 0.00 29 1011.9
20170920200004 77 242 2.0 7.0 0.00 0.00 0.00 28 1011.9
20170920195505 77 5 1.0 5.0 0.00 0.00 0.00 26 1011.8
20170920195004 77 336 3.0 7.0 0.00 0.00 0.00 29 1011.9
20170920194504 77 328 3.0 8.0 0.00 0.00 0.00 28 1011.9
20170920194004 77 355 2.0 8.0 0.00 0.00 0.00 29 1012.1
20170920193503 76 290 2.0 3.0 0.00 0.00 0.00 29 1012.2
20170920193004 76 347 1.0 5.0 0.00 0.00 0.00 30 1012.3
20170920192504 75 13 3.0 5.0 0.00 0.00 0.00 32 1012.3
20170920192004 75 331 2.0 8.0 0.00 0.00 0.00 31 1012.4
20170920191504 74 301 3.0 5.0 0.00 0.00 0.00 32 1012.7
20170920191004 74 238 4.0 5.0 0.00 0.00 0.00 31 1012.7
20170920190504 73 214 3.0 6.0 0.00 0.00 0.00 30 1012.7
20170920190004 73 250 2.0 5.0 0.00 0.00 0.00 32 1012.9
20170920185504 73 216 3.0 6.0 0.00 0.00 0.00 31 1012.9
20170920185004 72 255 3.0 8.0 0.00 0.00 0.00 32 1013.0
20170920184504 71 201 0.0 3.0 0.00 0.00 0.00 32 1013.3
20170920184004 70 11 3.0 6.0 0.00 0.00 0.00 33 1013.3
20170920183504 70 210 2.0 5.0 0.00 0.00 0.00 33 1013.4
20170920183004 69 293 2.0 5.0 0.00 0.00 0.00 34 1013.3
20170920182504 68 267 3.0 8.0 0.00 0.00 0.00 35 1013.3
20170920182004 68 37 2.0 6.0 0.00 0.00 0.00 36 1013.3
20170920181504 67 321 2.0 5.0 0.00 0.00 0.00 34 1013.4
20170920181004 66 240 3.0 5.0 0.00 0.00 0.00 35 1013.7
20170920180504 66 312 3.0 8.0 0.00 0.00 0.00 37 1013.9
20170920180004 65 291 3.0 6.0 0.00 0.00 0.00 37 1014.1
20170920175504 65 246 2.0 5.0 0.00 0.00 0.00 37 1014.2
20170920175004 64 320 2.0 7.0 0.00 0.00 0.00 37 1014.3
20170920174504 64 336 1.0 3.0 0.00 0.00 0.00 36 1014.5
20170920174004 64 211 1.0 3.0 0.00 0.00 0.00 38 1014.6
20170920173503 64 299 3.0 5.0 0.00 0.00 0.00 37 1014.5
20170920173003 64 356 2.0 8.0 0.00 0.00 0.00 37 1014.6
20170920172503 64 17 3.0 7.0 0.00 0.00 0.00 38 1014.8
20170920172004 64 332 4.0 6.0 0.00 0.00 0.00 37 1014.8
20170920171504 64 317 2.0 5.0 0.00 0.00 0.00 38 1015.1
20170920171004 64 340 3.0 7.0 0.00 0.00 0.00 37 1015.2
20170920170504 64 17 2.0 5.0 0.00 0.00 0.00 36 1015.0
20170920170004 64 338 3.0 3.0 0.00 0.00 0.00 37 1015.1
20170920165504 64 338 2.0 7.0 0.00 0.00 0.00 37 1015.2
20170920165004 64 339 3.0 6.0 0.00 0.00 0.00 38 1015.2
20170920164504 64 331 3.0 5.0 0.00 0.00 0.00 38 1015.3
20170920164004 63 309 2.0 8.0 0.00 0.00 0.00 38 1015.4
20170920163503 63 317 1.0 2.0 0.00 0.00 0.00 37 1015.5
20170920163004 62 317 2.0 5.0 0.00 0.00 0.00 39 1015.5
20170920162504 62 355 2.0 6.0 0.00 0.00 0.00 41 1015.6
20170920162003 61 22 1.0 6.0 0.00 0.00 0.00 41 1015.7
20170920161504 61 177 1.0 3.0 0.00 0.00 0.00 42 1015.6
20170920161004 60 268 2.0 3.0 0.00 0.00 0.00 43 1015.7
20170920160504 59 229 1.0 2.0 0.00 0.00 0.00 45 1015.8
20170920160004 59 229 1.0 3.0 0.00 0.00 0.00 48 1015.7
20170920155504 58 286 1.0 3.0 0.00 0.00 0.00 45 1015.9
20170920155004 58 279 1.0 3.0 0.00 0.00 0.00 47 1015.8
20170920154504 57 201 2.0 6.0 0.00 0.00 0.00 46 1015.8
20170920154004 57 303 1.0 3.0 0.00 0.00 0.00 47 1015.9
20170920153504 56 336 1.0 2.0 0.00 0.00 0.00 47 1015.9
20170920153004 56 96 1.0 3.0 0.00 0.00 0.00 47 1016.0
20170920152504 55 26 0.0 2.0 0.00 0.00 0.00 49 1015.9
20170920152004 55 26 1.0 2.0 0.00 0.00 0.00 52 1015.9
20170920151504 54 26 1.0 3.0 0.00 0.00 0.00 50 1015.9
20170920151004 54 117 1.0 3.0 0.00 0.00 0.00 50 1015.9
20170920150504 54 117 2.0 3.0 0.00 0.00 0.00 50 1016.0
20170920150003 53 126 2.0 3.0 0.00 0.00 0.00 50 1016.0
20170920145504 53 117 1.0 3.0 0.00 0.00 0.00 51 1016.1
20170920145004 52 117 2.0 3.0 0.00 0.00 0.00 51 1016.1
20170920144504 52 118 2.0 3.0 0.00 0.00 0.00 53 1015.8
20170920144004 51 114 3.0 3.0 0.00 0.00 0.00 54 1015.8
20170920143504 51 132 2.0 3.0 0.00 0.00 0.00 55 1015.9
20170920143004 50 142 1.0 6.0 0.00 0.00 0.00 57 1015.9
20170920142503 49 130 0.0 2.0 0.00 0.00 0.00 59 1016.0
20170920142004 49 130 1.0 3.0 0.00 0.00 0.00 60 1016.1
20170920141504 47 109 2.0 3.0 0.00 0.00 0.00 62 1016.0
20170920141004 46 109 2.0 3.0 0.00 0.00 0.00 65 1016.1
20170920140504 45 118 0.0 3.0 0.00 0.00 0.00 66 1016.0
20170920140003 44 118 1.0 2.0 0.00 0.00 0.00 68 1016.1
20170920135503 43 118 0.0 2.0 0.00 0.00 0.00 70 1016.0
20170920135004 43 118 1.0 3.0 0.00 0.00 0.00 71 1016.1
20170920134503 43 118 0.0 2.0 0.00 0.00 0.00 71 1016.1
20170920134004 43 118 0.0 1.0 0.00 0.00 0.00 70 1015.9
20170920133503 43 118 0.0 1.0 0.00 0.00 0.00 69 1015.9
20170920133004 43 118 0.0 1.0 0.00 0.00 0.00 69 1016.0
20170920132504 43 118 1.0 2.0 0.00 0.00 0.00 69 1015.8
20170920132004 43 118 0.0 1.0 0.00 0.00 0.00 68 1015.7
20170920131504 43 118 1.0 2.0 0.00 0.00 0.00 68 1015.7
20170920131003 43 118 0.0 0.0 0.00 0.00 0.00 67 1016.0
20170920130504 44 118 0.0 1.0 0.00 0.00 0.00 67 1016.0
20170920130004 44 118 0.0 1.0 0.00 0.00 0.00 66 1016.0
20170920125504 44 118 0.0 1.0 0.00 0.00 0.00 66 1015.9
20170920125004 44 118 0.0 0.0 0.00 0.00 0.00 66 1015.8
20170920124503 44 118 0.0 0.0 0.00 0.00 0.00 65 1015.8
20170920124004 44 118 0.0 1.0 0.00 0.00 0.00 64 1015.7
20170920123503 44 118 0.0 1.0 0.00 0.00 0.00 64 1015.5
20170920123003 44 118 0.0 2.0 0.00 0.00 0.00 64 1015.4
20170920122503 44 118 0.0 1.0 0.00 0.00 0.00 64 1015.1
20170920122004 44 118 1.0 3.0 0.00 0.00 0.00 63 1015.1
20170920121503 44 120 1.0 3.0 0.00 0.00 0.00 63 1015.2
20170920121004 44 121 1.0 3.0 0.00 0.00 0.00 63 1015.2
20170920120504 44 121 2.0 7.0 0.00 0.00 0.00 63 1015.1
20170920120004 44 115 2.0 7.0 0.00 0.00 0.00 63 1015.1
20170920115504 45 106 1.0 2.0 0.00 0.00 0.00 62 1015.2
20170920115004 45 106 0.0 0.0 0.00 0.00 0.00 61 1015.2
20170920114504 45 106 0.0 0.0 0.00 0.00 0.00 61 1015.2
20170920114004 45 106 0.0 0.0 0.00 0.00 0.00 60 1015.2
20170920113503 45 106 0.0 0.0 0.00 0.00 0.00 61 1014.9
20170920113003 45 106 0.0 3.0 0.00 0.00 0.00 61 1015.0
20170920112503 45 111 2.0 6.0 0.00 0.00 0.00 60 1015.0
20170920112003 46 113 0.0 2.0 0.00 0.00 0.00 59 1014.8
20170920111503 46 113 0.0 2.0 0.00 0.00 0.00 59 1014.8
20170920111003 46 113 1.0 3.0 0.00 0.00 0.00 59 1014.9
20170920110504 46 113 1.0 3.0 0.00 0.00 0.00 58 1014.9
20170920110004 46 113 0.0 3.0 0.00 0.00 0.00 58 1014.8
20170920105504 46 113 2.0 6.0 0.00 0.00 0.00 57 1014.9
20170920105004 46 86 1.0 2.0 0.00 0.00 0.00 57 1014.8
20170920104504 46 86 0.0 3.0 0.00 0.00 0.00 57 1014.7
20170920104004 46 115 2.0 6.0 0.00 0.00 0.00 57 1014.6
20170920103503 46 115 1.0 3.0 0.00 0.00 0.00 56 1014.6
20170920103004 46 117 3.0 7.0 0.00 0.00 0.00 56 1014.5
20170920102504 47 140 1.0 3.0 0.00 0.00 0.00 56 1014.2
20170920102004 47 101 2.0 6.0 0.00 0.00 0.00 56 1014.3
20170920101504 46 97 1.0 7.0 0.00 0.00 0.00 56 1014.2
20170920101004 46 114 4.0 9.0 0.00 0.00 0.00 56 1014.1
20170920100504 46 133 3.0 9.0 0.00 0.00 0.00 57 1013.9
20170920100003 46 124 5.0 12.0 0.00 0.00 0.00 57 1014.0
20170920095503 46 111 0.0 2.0 0.00 0.00 0.00 57 1014.0
20170920095003 46 113 3.0 6.0 0.00 0.00 0.00 57 1014.1
20170920094503 46 130 3.0 9.0 0.00 0.00 0.00 56 1013.7
20170920094004 46 118 3.0 7.0 0.00 0.00 0.00 56 1013.9
20170920093504 46 117 3.0 8.0 0.00 0.00 0.00 56 1013.8
20170920093004 46 119 2.0 6.0 0.00 0.00 0.00 56 1013.7
20170920092504 46 159 3.0 8.0 0.00 0.00 0.00 56 1013.6
20170920092003 47 141 3.0 7.0 0.00 0.00 0.00 56 1013.8
20170920091503 47 113 1.0 7.0 0.00 0.00 0.00 56 1013.7
20170920091004 47 105 1.0 6.0 0.00 0.00 0.00 56 1013.7
20170920090504 47 102 1.0 6.0 0.00 0.00 0.00 56 1013.7
20170920090004 47 104 0.0 2.0 0.00 0.00 0.00 56 1013.5
20170920085504 47 104 0.0 3.0 0.00 0.00 0.00 56 1013.4
20170920085004 47 109 1.0 7.0 0.00 0.00 0.00 55 1013.4